Вернуться в каталог

COSMOS 1275 DEB

LostPO
NORAD 42131·DEBRIS·🇷🇺 Russia

Запущен Jun 4, 1981 с Plesetsk Cosmodrome

Loading…

Ближайшие Пролёты (ближайшие 24 часа)

TLE

УстаревшееSource: Space-Track

Эпоха: Oct 27, 2024, 07:15 UTC

1 42131U 81053QT  24301.30213918  .00033845  00000-0  98006-2 0  9993
2 42131  82.8749 135.1696 0019025 318.6456 221.6378 14.44175064568411

Отслеживайте COSMOS 1275 DEB в реальном времени с AllMySat

Download on the App Store